User: anonymous   Login
Location: Codford Saint Peter
(51.1597°N, 2.0531°W)
Time: 01:48:10
(UTC+00:00)
Language:

Sich 1 Rocket - Orbit

View from above orbital plane
View from above orbital plane
View from above satellite
View from above satellite

Ground track
Ground track

The orbit data is extracted from the following two-line orbital elements,

1 23659U 95046C   20328.48794032 +.00000095 +00000-0 +97126-5 0  9995
2 23659 082.5326 220.6097 0027189 087.6724 084.9943 14.78352552359680
Epoch (UTC): 23 November 2020 11:42:38
Eccentricity: 0.0027189
inclination: 82.5326°
perigee height: 615 km
apogee height: 653 km
right ascension of ascending node: 220.6097°
argument of perigee: 87.6724°
revolutions per day: 14.78352552
mean anomaly at epoch: 84.9943°
orbit number at epoch: 35968

The dashed part of the orbit path shows where the satellite is in the earth's shadow,  

DLR